TimeCST,TemperatureF,Dew PointF,Humidity,Sea Level PressureIn,VisibilityMPH,Wind Direction,Wind SpeedMPH,Gust SpeedMPH,PrecipitationIn,Events,Conditions,WindDirDegrees,DateUTC
12:52 AM,30.9,27.0,85,30.11,10.0,Calm,Calm,-,N/A,,Overcast,0,2013-03-02 06:52:00
1:52 AM,30.9,27.0,85,30.10,10.0,Calm,Calm,-,N/A,,Scattered Clouds,0,2013-03-02 07:52:00
2:52 AM,26.1,25.0,96,30.10,10.0,SW,5.8,-,N/A,,Clear,230,2013-03-02 08:52:00
3:52 AM,27.0,26.1,96,30.09,10.0,SW,5.8,-,N/A,,Partly Cloudy,220,2013-03-02 09:52:00
4:52 AM,27.0,24.1,89,30.09,10.0,Calm,Calm,-,N/A,,Clear,0,2013-03-02 10:52:00
5:52 AM,24.1,23.0,96,30.10,10.0,Calm,Calm,-,N/A,,Clear,0,2013-03-02 11:52:00
6:52 AM,24.1,23.0,96,30.12,10.0,West,3.5,-,N/A,,Clear,280,2013-03-02 12:52:00
7:52 AM,24.1,24.1,100,30.12,8.0,Calm,Calm,-,N/A,,Clear,0,2013-03-02 13:52:00
8:52 AM,30.0,28.0,92,30.12,10.0,NNW,3.5,-,N/A,,Clear,330,2013-03-02 14:52:00
9:52 AM,30.9,27.0,85,30.14,10.0,Calm,Calm,-,N/A,,Clear,0,2013-03-02 15:52:00
10:52 AM,33.1,28.0,82,30.14,10.0,North,3.5,-,N/A,,Clear,360,2013-03-02 16:52:00
11:52 AM,35.1,28.9,78,30.14,10.0,Calm,Calm,-,N/A,,Clear,0,2013-03-02 17:52:00
12:52 PM,37.0,30.0,76,30.11,10.0,Calm,Calm,-,N/A,,Clear,0,2013-03-02 18:52:00
1:52 PM,37.0,30.0,76,30.09,10.0,North,5.8,-,N/A,,Scattered Clouds,360,2013-03-02 19:52:00
2:52 PM,37.0,30.0,76,30.11,10.0,WNW,5.8,-,N/A,,Overcast,300,2013-03-02 20:52:00
3:52 PM,37.0,30.0,76,30.09,10.0,North,4.6,-,N/A,,Scattered Clouds,10,2013-03-02 21:52:00
4:52 PM,36.0,30.0,79,30.07,10.0,NNE,6.9,-,N/A,,Clear,30,2013-03-02 22:52:00
5:52 PM,35.1,30.0,82,30.07,10.0,NNE,5.8,-,N/A,,Clear,20,2013-03-02 23:52:00
6:52 PM,33.1,30.0,89,30.07,10.0,NNE,6.9,-,N/A,,Clear,30,2013-03-03 00:52:00
7:52 PM,32.0,28.9,88,30.06,10.0,NNE,6.9,-,N/A,,Clear,30,2013-03-03 01:52:00
8:52 PM,30.9,28.9,92,30.02,7.0,NNE,5.8,-,N/A,,Clear,30,2013-03-03 02:52:00
9:52 PM,30.0,28.9,96,30.00,6.0,North,3.5,-,N/A,,Clear,350,2013-03-03 03:52:00
10:52 PM,30.9,28.9,92,29.99,6.0,Calm,Calm,-,N/A,,Clear,0,2013-03-03 04:52:00
11:52 PM,30.9,30.0,96,29.96,6.0,Calm,Calm,-,N/A,,Clear,0,2013-03-03 05:52:00